Regional Weather Roundup
Issued by NWS

Home | Current Version | Previous Version | Text Only | Print | Product List | Glossary Off
Versions: 1 2 3 4 5 6 7 8 9 10 11 12 13 14 15 16 17 18 19 20 21 22 23 24 25 26 27 28 29 30 31 32 33 34 35 36 37 38 39 40 41 42 43 44 45 46 47 48 49 50

000
ASUS43 KDTX 270910
RWRMI
MICHIGAN HOURLY REGIONAL WEATHER ROUNDUP
NATIONAL WEATHER SERVICE DETROIT/PONTIAC MI
500 AM EDT FRI MAR 27 2015

NOTE: "FAIR" INDICATES FEW OR NO CLOUDS BELOW 12,000 FEET WITH NO
SIGNIFICANT WEATHER AND/OR OBSTRUCTION TO VISIBILITY.

MIZ047>049-052>055-059>063-066>070-074>076-081>083-271000-
SOUTHEAST LOWER MICHIGAN

CITY           SKY/WX    TMP DP  RH WIND       PRES   REMARKS
ADRIAN         CLOUDY    28  17  63 N10       29.98R WCI  19
ALMA           CLOUDY    21  10  63 NW9       30.03S WCI  11
ANN ARBOR      MOCLDY    24  14  65 N12       29.97R WCI  13
BAD AXE        LGT SNOW  21  18  86 NW8       29.96R WCI  12
CARO           LGT SNOW  22  16  76 NW10      29.99R WCI  11
DETROIT CITY   CLOUDY    29  15  56 NW9       29.96R WCI  20
DETROIT        CLOUDY    27  16  63 NW14      29.97R WCI  16
FLINT          CLOUDY    22  11  62 NW12G22   30.00R WCI  10
GROSSE ILE     CLOUDY    30  19  64 N14       29.94S WCI  20
HILLSDALE      CLOUDY    26  15  61 N13G21    29.96R WCI  15
HOWELL         FLURRIES  22  15  71 NW10G17   29.98S WCI  12

CITY           SKY/WX    TMP DP  RH WIND       PRES   REMARKS
JACKSON        MOCLDY    23  15  71 NW12      29.98R WCI  12
LAMBERTVILLE   CLOUDY    32  21  64 N9        29.97S WCI  24
LANSING        CLOUDY    21  10  62 NW12      30.02R WCI   9
LAPEER         FLURRIES  21  14  73 NW7       29.97S WCI  13
MASON          CLOUDY    21  12  68 N12G22    30.00R WCI   9
MONROE         FLURRIES  30  19  64 NW10      29.95S WCI  21
MT. CLEMENS    CLOUDY    24  15  67 NW13      29.94R WCI  13
PONTIAC        CLOUDY    22  13  68 NW15      29.95R WCI   9
PORT HOPE        N/A     26  20  77 N12       29.93R WCI  16
PORT HURON     FLURRIES  23  18  80 NW10G16   29.96R WCI  12
TRI CITIES     FLURRIES  21  12  68 NW14      30.01S WCI   8
TROY           CLOUDY    26  14  60 W12       29.98R WCI  16
SAGINAW HB     FLURRIES  23  16  74 NW13      30.00  WCI  11
$$
MIZ043>046-050>051-056>058-064>065-071>073-077>080-271000-
SOUTHWEST LOWER MICHIGAN

CITY           SKY/WX    TMP DP  RH WIND       PRES   REMARKS
BATTLE CREEK   CLEAR     22  14  71 N9        30.01R WCI  12
BENTON HARBOR  CLOUDY    24  14  65 N10G16    30.05S WCI  14
BIG RAPIDS     CLOUDY    20   8  59 N9G16     30.02S WCI   9
COLDWATER      CLOUDY    26  15  64 N10G16    29.98S WCI  16
FREMONT        FAIR      20  11  67 N12       30.05R WCI   9
HOLLAND        PTCLDY    23  13  65 N7        30.06R WCI  15
GRAND RAPIDS   CLEAR     20   9  62 N14       30.04R WCI   7
IONIA          FLURRIES  22  12  65 NW12      30.02S WCI  11
KALAMAZOO      CLEAR     22  13  68 N12       30.02S WCI  10
LUDINGTON      CLOUDY    22  13  67 N14G22    30.08S WCI   9
MARSHALL       CLEAR     21  12  69 N3        29.99S
MOUNT PLEASANT CLOUDY    21  10  64 NW10G17   30.02R WCI   9
MUSKEGON       CLEAR     22  10  60 N10       30.07S WCI  11
SOUTH HAVEN    CLOUDY    25  13  60 N7        30.05S WCI  17
$$
MIZ016>042-271000-
NORTHERN LOWER MICHIGAN

CITY           SKY/WX    TMP DP  RH WIND       PRES   REMARKS
ALPENA         LGT SNOW  18  12  77 N13       30.01R WCI   5
BEAVER ISLAND  CLEAR     12   5  71 N6        30.12R WCI   3
BELLAIRE       MOCLDY    16   8  68 N6        30.09R WCI   8
CADILLAC       LGT SNOW  17  10  74 NW9       30.00R WCI   6
CHARLEVOIX     CLEAR     14   7  73 N10G17    30.12R WCI   1
FRANKFORT      PTCLDY    21   2  43 N6G17     30.10R WCI  14
GAYLORD        FLURRIES  13   8  81 VRB5      29.99R WCI   5
GRAYLING       CLOUDY    15   8  72 NW13      30.01R WCI   1
HARBOR SPRINGS CLEAR     12   2  64 CALM      30.07S
HOUGHTON LAKE  CLOUDY    16   6  65 NW13G18   30.00R WCI   2
MANISTEE       CLOUDY    19   7  58 N13G18    30.08F WCI   7
OSCODA         LGT SNOW  22  19  89 NW7       29.97R WCI  13
PELLSTON       CLEAR     12   2  64 N10       30.08R WCI  -1
ROGERS CITY    CLOUDY    16   9  74 N14G23    30.05R WCI   2
TRAVERSE CITY  PTCLDY    17   5  59 N14G21    30.08R WCI   3
$$
MIZ007>008-015-271000-
EASTERN UPPER MICHIGAN

CITY           SKY/WX    TMP DP  RH WIND       PRES   REMARKS
KINROSS        CLEAR      5   1  85 NW9       30.07S WCI  -9
MACKINAC ISLAN CLEAR     12   4  70 N13G18    30.07R WCI  -3
NEWBERRY       CLEAR      6   2  87 N6        30.10R WCI  -5
S. S. MARIE    CLEAR      8  -2  63 N7        30.08R WCI  -3
MUNISING         N/A     10   2  69 NE13      30.16R WCI  -5
$$
MIZ004>006-011>014-085-271000-
CENTRAL UPPER MICHIGAN

CITY           SKY/WX    TMP DP  RH WIND       PRES   REMARKS
MANISTIQUE     MOCLDY     9   4  80 N7        30.13R WCI  -2
ESCANABA       CLOUDY    16   9  73 CALM      30.14S
MENOMINEE      CLEAR     14   7  73 NW7       30.15S WCI   4
SAWYER-GWINN   CLOUDY    15   4  62 N14       30.10S WCI   0
$$
MIZ001>003-009>011-084-271000-
WESTERN UPPER MICHIGAN

CITY           SKY/WX    TMP DP  RH WIND       PRES   REMARKS
IRON MOUNTAIN  CLEAR      9   2  73 N5        30.12R WCI   1
HOUGHTON       MOCLDY    11   0  61 NE8       30.17R WCI  -1
COPPER HARBOR    N/A      8   1  73 E7        30.23R WCI  -3
IRONWOOD       CLOUDY    19   5  53 N6        30.16R WCI  11
$$

ABBREVIATIONS USED IN REMARKS
   TC - TEMPERATURE IN CELSIUS
  WCI - WIND CHILL INDEX
   HX - HEAT INDEX
  VSB - VISIBILITY




USA.gov is the U.S. government's official web portal to all federal, state and local government web resources and services.